SCP
0 0 0 0 0 0 -0 -0 0 0 0 0 0 0 0 0 -0 -0 -0 -0 -0 -0 -0 -0 -0 -0 -0 -0 0 0 0 0
0 0 0 0 0 0 -0 -0 0 0 0 0 0 0 0 -0 0 0 0 -0 -0 -0 -0 -0 -0 -0 -0 0 0 0 0 0
0 0 0 0 0 0 0 0 0 0 0 0 0 0 0 0 0 -0 0 0 -0 -0 -0 -0 -0 -0 0 0 0 0 0 0
-0 0 0 0 0 0 0 0 0 0 0 0 0 0 0 -0 -0 -0 0 0 -0 -0 -0 -0 -0 -0 0 0 0 0 0 0
0 0 0 0 0 0 0 0 0 0 0 0 0 0 0 -0 0 0 0 0 -0 -0 -0 -0 -0 0 0 0 0 0 0 0
0 0 0 0 0 0 0 0 0 0 0 0 0 0 0 0 0 0 0 0 0 -0 -0 0 0 0 0 0 0 -0 -0 -0
0 0 0 0 0 0 0 0 0 0 0 0 0 -0 -0 -0 0 0 0 -0 -0 -0 0 -0 0 0 0 0 0 -0 -0 0
0 0 0 0 0 0 0 0 0 0 0 0 0 -0 -0 -0 -0 0 0 -0 -0 -0 -0 0 0 0 0 0 -0 -0 -0 0
0 0 0 0 0 0 0 0 0 0 0 0 0 0 0 -0 -0 -0 -0 0 -0 -0 -0 -0 0 -0 -0 -0 -0 -0 -0 -0
0 0 0 0 0 0 0 0 0 0 -0 -0 0 -0 -0 -0 -0 -0 0 0 -0 -0 0 0 0 0 -0 -0 -0 -0 -0 0
0 0 0 0 0 0 0 0 0 0 0 -0 -0 -0 -0 -0 -0 0 0 0 -0 -0 0 0 0 0 -0 -0 -0 -0 -0 0
0 0 0 0 0 0 0 0 0 0 0 0 -0 0 0 -0 -0 -0 0 0 0 -0 -0 0 0 -0 -0 -0 -0 -0 -0 0
0 0 0 0 0 0 0 0 0 0 0 0 -0 0 0 -0 -0 0 0 0 0 0 0 0 0 0 -0 -0 0 0 0 0
0 0 0 0 0 -0 0 0 0 0 0 0 0 0 0 0 0 0 0 0 0 0 0 0 0 0 0 0 0 0 0 0
0 0 0 0 0 0 -0 0 -0 0 0 0 0 0 0 0 0 0 0 0 0 0 0 0 0 0 0 0 0 0 0 0
0 0 0 0 0 0 -0 -0 -0 -0 0 -0 0 -0 -0 0 0 0 0 0 0 0 0 0 0 0 0 0 0 0 0 0
0 -0 0 0 0 0 0 0 0 -0 -0 -0 0 -0 -0 -0 0 0 0 0 0 0 0 0 0 0 0 0 0 0 0 0
0 -0 0 0 0 0 0 0 0 0 0 -0 -0 -0 -0 -0 0 0 0 0 0 0 0 0 0 0 0 0 0 0 0 0
0 0 -0 0 0 0 0 0 0 0 0 0 0 0 -0 0 0 0 0 0 0 0 0 0 0 0 0 0 0 0 0 0
0 0 0 0 0 0 0 0 0 0 0 0 0 0 0 -0 0 0 0 0 0 0 0 0 0 0 0 0 0 0 0 0
Wind_Speed_500mb
7 6 9 7 8 10 5 9 10 3 9 10 3 6 7 33 46 53 50 55 54 51 49 50 49 48 49 51 51 50 47 43
7 10 11 10 10 14 7 5 6 13 11 10 12 4 19 45 46 54 50 55 53 51 51 52 52 52 53 53 51 47 43 41
4 9 10 5 3 35 9 4 5 3 3 12 7 16 16 39 47 51 52 56 55 52 52 53 53 54 56 54 50 46 42 39
9 9 8 2 13 20 6 2 10 2 14 8 14 4 3 32 42 49 52 57 56 54 53 53 53 56 58 55 50 44 41 38
11 6 7 8 19 11 14 8 8 6 5 13 23 29 25 31 43 52 56 58 59 58 56 54 55 57 57 55 50 43 40 35
8 9 11 5 15 6 13 10 13 17 14 12 33 40 43 45 49 56 60 59 61 61 60 57 58 59 58 55 50 44 38 34
11 13 10 7 10 13 12 15 19 21 26 27 41 48 57 57 56 59 62 65 65 65 63 61 61 61 59 56 51 45 40 36
15 12 10 11 17 26 17 16 16 27 35 37 49 63 71 75 71 70 72 70 73 71 68 64 63 63 61 57 53 48 43 40
18 37 27 8 10 17 19 12 42 59 58 58 54 73 61 67 75 75 76 78 80 76 72 69 67 66 63 59 56 51 48 45
16 35 19 14 16 15 39 59 51 60 55 59 68 81 61 66 76 79 80 82 83 81 77 73 68 67 63 61 58 56 52 50
37 30 34 28 30 15 38 67 51 45 56 71 76 72 66 70 77 74 79 83 86 85 82 76 71 67 64 63 61 58 56 54
20 26 12 16 4 14 45 54 55 46 68 61 88 92 76 75 78 77 78 82 83 86 84 77 73 69 67 63 61 59 59 56
18 12 13 20 3 19 53 26 43 53 66 73 71 72 87 76 80 78 79 76 86 82 84 80 74 70 67 63 62 62 62 62
13 8 2 4 16 21 41 34 47 49 57 65 64 62 67 74 80 78 78 81 81 82 82 80 77 72 68 64 64 63 63 62
15 1 10 6 19 19 37 36 34 21 28 38 37 45 39 60 73 78 85 85 80 80 85 80 78 74 70 69 68 67 65 62
7 10 3 5 21 29 36 26 32 39 29 30 32 39 34 48 68 80 87 88 81 78 83 82 81 77 73 68 71 70 68 65
7 8 14 15 30 34 46 47 42 51 49 42 35 36 43 50 59 80 91 98 93 86 85 87 89 86 78 70 69 71 70 68
11 7 20 19 24 23 36 31 37 38 46 48 45 37 32 32 46 69 85 93 96 88 88 89 90 88 85 81 75 76 76 74
10 7 10 7 13 16 19 48 56 58 48 50 47 40 34 29 31 50 63 72 83 86 92 91 95 98 94 87 81 83 81 78
13 1 3 4 7 5 12 18 33 48 56 57 58 50 38 27 42 44 53 48 57 73 82 94 105 104 101 99 99 96 89 83
Wind_Direction_500mb
96 112 176 196 226 190 269 256 186 76 96 117 113 304 178 170 164 173 173 169 166 166 167 166 163 160 156 152 150 148 146 144
100 226 248 199 158 187 193 195 178 144 109 92 38 314 177 169 172 175 174 171 169 169 169 169 166 163 161 159 155 153 151 147
146 253 261 236 225 171 192 268 354 95 157 87 79 61 170 170 174 179 178 172 173 173 172 171 169 166 165 163 159 155 152 149
212 243 251 230 195 176 164 258 320 349 152 147 140 155 135 189 180 185 182 176 176 176 176 173 172 170 169 166 163 160 156 154
185 236 277 206 186 189 165 155 244 226 145 167 178 179 179 189 188 185 187 182 181 179 179 176 174 174 173 172 169 166 163 161
209 176 252 194 165 258 158 192 226 193 194 204 186 177 172 176 184 187 189 188 186 184 182 181 177 178 177 176 174 172 171 169
207 165 238 190 159 166 187 172 209 214 219 200 179 183 170 176 187 192 196 191 192 190 187 185 182 181 181 180 178 178 178 175
204 201 211 210 191 171 158 174 228 219 202 170 181 189 183 184 190 195 198 197 196 194 192 188 186 186 185 184 182 183 183 180
231 222 230 219 209 206 157 216 219 215 207 200 201 201 194 195 193 197 198 198 199 197 195 192 190 189 189 188 187 188 186 182
253 239 223 223 219 203 195 236 263 248 231 206 208 214 218 213 201 199 199 201 199 200 198 196 193 193 191 192 192 191 187 185
256 268 247 235 219 210 225 248 244 235 210 214 207 218 226 214 206 205 205 204 205 203 202 198 196 196 194 194 194 193 191 191
275 265 240 186 199 173 253 253 231 221 214 216 211 222 225 214 207 207 207 207 209 208 206 203 199 199 197 195 196 197 197 197
239 232 191 156 270 229 243 261 222 219 212 211 221 228 223 218 207 207 208 208 212 211 210 208 204 202 201 199 200 202 203 203
319 360 27 348 265 265 256 237 239 223 228 222 229 229 225 225 214 213 211 212 214 213 213 212 209 207 207 206 206 208 210 210
331 328 129 171 274 300 327 232 248 281 275 257 240 236 226 233 227 222 220 218 219 219 215 212 213 211 212 212 213 214 214 215
250 277 6 328 350 344 15 46 20 10 353 326 298 302 284 258 245 239 228 226 224 218 216 212 212 212 212 217 217 217 217 217
256 290 79 62 41 20 28 37 42 24 11 356 322 305 290 264 245 243 241 227 225 219 215 211 211 209 211 214 215 218 220 223
290 19 94 71 34 29 36 47 48 31 18 6 344 321 289 269 235 225 238 235 228 222 217 212 213 211 215 215 216 221 220 220
257 56 66 100 47 3 19 33 23 18 16 15 360 348 326 287 251 223 222 229 233 231 222 215 213 214 217 219 220 217 218 217
279 42 198 34 180 319 340 1 7 359 358 354 354 355 350 301 265 249 231 237 238 233 232 228 218 218 221 219 217 217 215 214
Wind_Speed_850mb
7 6 9 7 8 10 5 9 10 3 9 10 3 6 7 33 46 53 50 55 54 51 49 50 49 48 49 51 51 50 47 43
7 10 11 10 10 14 7 5 6 13 11 10 12 4 19 45 46 54 50 55 53 51 51 52 52 52 53 53 51 47 43 41
4 9 10 5 3 35 9 4 5 3 3 12 7 16 16 39 47 51 52 56 55 52 52 53 53 54 56 54 50 46 42 39
9 9 8 2 13 20 6 2 10 2 14 8 14 4 3 32 42 49 52 57 56 54 53 53 53 56 58 55 50 44 41 38
11 6 7 8 19 11 14 8 8 6 5 13 23 29 25 31 43 52 56 58 59 58 56 54 55 57 57 55 50 43 40 35
8 9 11 5 15 6 13 10 13 17 14 12 33 40 43 45 49 56 60 59 61 61 60 57 58 59 58 55 50 44 38 34
11 13 10 7 10 13 12 15 19 21 26 27 41 48 57 57 56 59 62 65 65 65 63 61 61 61 59 56 51 45 40 36
15 12 10 11 17 26 17 16 16 27 35 37 49 63 71 75 71 70 72 70 73 71 68 64 63 63 61 57 53 48 43 40
18 37 27 8 10 17 19 12 42 59 58 58 54 73 61 67 75 75 76 78 80 76 72 69 67 66 63 59 56 51 48 45
16 35 19 14 16 15 39 59 51 60 55 59 68 81 61 66 76 79 80 82 83 81 77 73 68 67 63 61 58 56 52 50
37 30 34 28 30 15 38 67 51 45 56 71 76 72 66 70 77 74 79 83 86 85 82 76 71 67 64 63 61 58 56 54
20 26 12 16 4 14 45 54 55 46 68 61 88 92 76 75 78 77 78 82 83 86 84 77 73 69 67 63 61 59 59 56
18 12 13 20 3 19 53 26 43 53 66 73 71 72 87 76 80 78 79 76 86 82 84 80 74 70 67 63 62 62 62 62
13 8 2 4 16 21 41 34 47 49 57 65 64 62 67 74 80 78 78 81 81 82 82 80 77 72 68 64 64 63 63 62
15 1 10 6 19 19 37 36 34 21 28 38 37 45 39 60 73 78 85 85 80 80 85 80 78 74 70 69 68 67 65 62
7 10 3 5 21 29 36 26 32 39 29 30 32 39 34 48 68 80 87 88 81 78 83 82 81 77 73 68 71 70 68 65
7 8 14 15 30 34 46 47 42 51 49 42 35 36 43 50 59 80 91 98 93 86 85 87 89 86 78 70 69 71 70 68
11 7 20 19 24 23 36 31 37 38 46 48 45 37 32 32 46 69 85 93 96 88 88 89 90 88 85 81 75 76 76 74
10 7 10 7 13 16 19 48 56 58 48 50 47 40 34 29 31 50 63 72 83 86 92 91 95 98 94 87 81 83 81 78
13 1 3 4 7 5 12 18 33 48 56 57 58 50 38 27 42 44 53 48 57 73 82 94 105 104 101 99 99 96 89 83
Wind_Direction_850mb
96 112 176 196 226 190 269 256 186 76 96 117 113 304 178 170 164 173 173 169 166 166 167 166 163 160 156 152 150 148 146 144
100 226 248 199 158 187 193 195 178 144 109 92 38 314 177 169 172 175 174 171 169 169 169 169 166 163 161 159 155 153 151 147
146 253 261 236 225 171 192 268 354 95 157 87 79 61 170 170 174 179 178 172 173 173 172 171 169 166 165 163 159 155 152 149
212 243 251 230 195 176 164 258 320 349 152 147 140 155 135 189 180 185 182 176 176 176 176 173 172 170 169 166 163 160 156 154
185 236 277 206 186 189 165 155 244 226 145 167 178 179 179 189 188 185 187 182 181 179 179 176 174 174 173 172 169 166 163 161
209 176 252 194 165 258 158 192 226 193 194 204 186 177 172 176 184 187 189 188 186 184 182 181 177 178 177 176 174 172 171 169
207 165 238 190 159 166 187 172 209 214 219 200 179 183 170 176 187 192 196 191 192 190 187 185 182 181 181 180 178 178 178 175
204 201 211 210 191 171 158 174 228 219 202 170 181 189 183 184 190 195 198 197 196 194 192 188 186 186 185 184 182 183 183 180
231 222 230 219 209 206 157 216 219 215 207 200 201 201 194 195 193 197 198 198 199 197 195 192 190 189 189 188 187 188 186 182
253 239 223 223 219 203 195 236 263 248 231 206 208 214 218 213 201 199 199 201 199 200 198 196 193 193 191 192 192 191 187 185
256 268 247 235 219 210 225 248 244 235 210 214 207 218 226 214 206 205 205 204 205 203 202 198 196 196 194 194 194 193 191 191
275 265 240 186 199 173 253 253 231 221 214 216 211 222 225 214 207 207 207 207 209 208 206 203 199 199 197 195 196 197 197 197
239 232 191 156 270 229 243 261 222 219 212 211 221 228 223 218 207 207 208 208 212 211 210 208 204 202 201 199 200 202 203 203
319 360 27 348 265 265 256 237 239 223 228 222 229 229 225 225 214 213 211 212 214 213 213 212 209 207 207 206 206 208 210 210
331 328 129 171 274 300 327 232 248 281 275 257 240 236 226 233 227 222 220 218 219 219 215 212 213 211 212 212 213 214 214 215
250 277 6 328 350 344 15 46 20 10 353 326 298 302 284 258 245 239 228 226 224 218 216 212 212 212 212 217 217 217 217 217
256 290 79 62 41 20 28 37 42 24 11 356 322 305 290 264 245 243 241 227 225 219 215 211 211 209 211 214 215 218 220 223
290 19 94 71 34 29 36 47 48 31 18 6 344 321 289 269 235 225 238 235 228 222 217 212 213 211 215 215 216 221 220 220
257 56 66 100 47 3 19 33 23 18 16 15 360 348 326 287 251 223 222 229 233 231 222 215 213 214 217 219 220 217 218 217
279 42 198 34 180 319 340 1 7 359 358 354 354 355 350 301 265 249 231 237 238 233 232 228 218 218 221 219 217 217 215 214